User: anonymous   Login
Location: Newark
(51.0089°N, 21.5817°E)
Time: 14:19:11
(UTC+00:00)
Language:

PCSat - Orbit

View from above orbital plane
View from above orbital plane
View from above satellite
View from above satellite

Ground track
Ground track

The orbit data is extracted from the following two-line orbital elements,

1 26931U 01043C   20056.67948127 -.00000029 +00000-0 +20634-4 0  9997
2 26931 067.0505 073.4191 0006451 263.6813 096.3553 14.30568091960942
Epoch (UTC): 25 February 2020 16:18:27
Eccentricity: 0.0006451
inclination: 67.0505°
perigee height: 785 km
apogee height: 794 km
right ascension of ascending node: 73.4191°
argument of perigee: 263.6813°
revolutions per day: 14.30568091
mean anomaly at epoch: 96.3553°
orbit number at epoch: 96094

The dashed part of the orbit path shows where the satellite is in the earth's shadow,  

DLR